sat.trackr.live / text

‹ back to catalog

ONEWEB-0545

NORAD 54647 · 2022-166F

PAYLOAD ACTIVE UNKNOWN

§ Identity

Operator
Country
UK
Launch date
2022-12-08
Launch site
AFETR
Launch vehicle
Mass (kg)
RCS (m²)

Purposes: comms

External: N2YO · Heavens-Above · Gunter

§ Orbital elements

Epoch: 2026-09-20T04:32:17.128032Z

Period
108.94 min
Inclination
87.9282°
Eccentricity
0.0002561
Mean motion
13.21826245 rev/d
Perigee alt
1,175.8 km
Apogee alt
1,179.7 km
Semi-major
7,555.9 km
B*
-1.5431e-4
RAAN
225.0708°
Arg perigee
90.9586°
Mean anomaly
269.1841°
Rev number
18,405

§ Raw data

ONEWEB-05451 54647U 22166F   26263.18908713 -.00000051  00000+0 -15431-3 0  99932 54647  87.9282 225.0708 0002561  90.9586 269.1841 13.21826245184052

JSON: /api/v1/satellites/54647 · /tle

For live sub-satellite position, see the globe view (requires WebGL).

§ Visibility from observer

Set your observer location to see the next 7 days of passes ≥ 10°. The values pass through the URL so the page stays shareable.

No JS? Fill the form by hand. The geolocation button needs JavaScript.